Tracking 19827 objects as of 21-Aug-2019
HD Live streaming from Space Station
objects crossing your sky now

GORIZONT 2

Track GORIZONT 2 now!
GORIZONT 2 is classified as:


NORAD ID: 11440
Int'l Code: 1979-062A
Perigee: 35,784.0 km
Apogee: 35,812.8 km
Inclination: 11.5 °
Period: 1,436.3 minutes
Semi major axis: 42169 km
RCS: 3.981 m2 (large)
Launch date: July 5, 1979
Source: Commonwealth of Independent States (former USSR) (CIS)
Launch site: TYURATAM MISSILE AND SPACE COMPLEX (TTMTR)
aabbcc
Your satellite tracking list
Your tracking list is empty




NASA's NSSDC Master Catalog

Two Line Element Set (TLE):
1 11440U 79062A   19232.77697701 -.00000208 +00000-0 +00000-0 0  9996
2 11440 011.5080 314.1497 0003419 288.4944 094.2277 01.00255294113039
Source of the keplerian elements: AFSPC